Weather History for Hamilton Island, Queensland

Change the Weather History Date:

Thursday, May 16, 2013

  Actual Average Record
Temperature  
Mean Temperature 73 °F -  
Max Temperature 80 °F - - ()
Min Temperature 66 °F - - ()
Cooling Degree Days 8    
Growing Degree Days 23 (Base 50)    
Moisture  
Dew Point 71 °F    
Average Humidity 92    
Maximum Humidity 100    
Minimum Humidity 78    
Precipitation  
Precipitation 0.75 in - - ()
Sea Level Pressure  
Sea Level Pressure 29.95 in    
Wind  
Wind Speed 7 mph ()    
Max Wind Speed 34 mph    
Max Gust Speed 34 mph    
T = Trace of Precipitation, MM = Missing Value Source: Averaged Metar Reports

Daily Weather History Graph

Daily Weather History Graph

Search for Another Location

Airport:

Trip Planner

Search our weather history database for the weather conditions in past years. The results will help you decide how hot, cold, wet, or windy it might be!

Date:

Astronomy

May. 16, 2013 Rise Set
Actual Time 6:26 AM AEST 5:34 PM AEST
Civil Twilight 6:02 AM AEST 5:58 PM AEST
Nautical Twilight 5:36 AM AEST 6:24 PM AEST
Astronomical Twilight 5:09 AM AEST 6:51 PM AEST
Moon 11:00 AM AEST (5/16) 10:37 PM AEST (5/16)
Length of Visible Light 11h 55m
Length of Day
11h 08m
Waxing Crescent, 30% of the Moon is Illuminated
May 16
Waxing Crescent
May 18
First Quarter
May 25
Full
Jun 1
Last Quarter
Jun 9
New

Hourly Weather History & Observations

Time (AEST) Temp. Heat Index Dew Point Humidity Pressure Visibility Wind Dir Wind Speed Gust Speed Precip Events Conditions
12:00 AM 72 °F - 72 °F 100% 29.95 in - Calm Calm - -  
12:00 AM 71.6 °F - 71.6 °F 100% 29.95 in - Calm Calm - N/A   Unknown
12:30 AM - - - N/A% 29.95 in - Calm Calm - N/A   Unknown
1:00 AM - - - N/A% 29.92 in - Calm Calm - N/A   Unknown
1:30 AM - - - N/A% 29.92 in - SW 2.3 mph - N/A   Unknown
2:00 AM - - - N/A% 29.92 in - SE 2.3 mph - N/A   Unknown
2:30 AM - - - N/A% 29.92 in - ESE 1.2 mph - N/A   Unknown
3:00 AM 72 °F - - % 29.91 in - East 4.6 mph - -  
3:00 AM - - - N/A% 29.89 in - East 4.6 mph - N/A   Unknown
3:30 AM - - - N/A% 29.92 in - Calm Calm - N/A   Unknown
4:00 AM - - - N/A% 29.89 in - NE 3.5 mph - N/A   Unknown
4:30 AM - - - N/A% 29.92 in - Calm Calm - N/A   Unknown
5:00 AM - - - N/A% 29.92 in - SSW 5.8 mph - N/A   Unknown
5:30 AM 73.4 °F - 73.4 °F 100% 29.92 in - NNE 1.2 mph - N/A   Unknown
6:00 AM 72 °F - - % 29.91 in - ESE 2.3 mph - -  
6:00 AM - - - N/A% 29.92 in - ESE 2.3 mph - N/A   Unknown
6:30 AM 73.4 °F - 73.4 °F 100% 29.92 in - SE 4.6 mph - N/A   Unknown
7:00 AM 73.4 °F - 73.4 °F 100% 29.95 in - SSE 4.6 mph - N/A   Unknown
7:30 AM 73.4 °F - 73.4 °F 100% 29.95 in - SE 3.5 mph - N/A   Unknown
8:00 AM 75.2 °F - 73.4 °F 94% 29.95 in - East 3.5 mph - N/A   Unknown
8:30 AM 75.2 °F - 73.4 °F 94% 29.95 in - SE 5.8 mph - N/A   Unknown
9:00 AM 75 °F - 73 °F 92% 29.97 in - ESE 3.5 mph - -  
9:00 AM 75.2 °F - 73.4 °F 94% 29.95 in - ESE 3.5 mph - N/A   Unknown
9:30 AM 75.2 °F - 73.4 °F 94% 29.98 in - SW 6.9 mph - N/A   Unknown
10:00 AM 77.0 °F - 75.2 °F 94% 29.98 in - SE 5.8 mph - N/A   Unknown
10:30 AM 77.0 °F - 73.4 °F 89% 29.95 in - SE 4.6 mph - N/A   Unknown
11:00 AM 77.0 °F - 73.4 °F 89% 29.95 in - ESE 4.6 mph - N/A   Unknown
11:30 AM 77.0 °F - 73.4 °F 89% 29.95 in - WSW 5.8 mph - N/A   Unknown
12:00 PM 77 °F - 73 °F 83% 29.93 in - NW 6.9 mph - -  
12:00 PM 77.0 °F - 73.4 °F 89% 29.92 in - NW 6.9 mph - N/A   Unknown
12:30 PM 80.6 °F 85.4 °F 73.4 °F 79% 29.89 in - NNW 13.8 mph - N/A   Unknown
1:00 PM 78.8 °F - 73.4 °F 83% 29.89 in - NW 9.2 mph - N/A   Unknown
1:30 PM 78.8 °F - 71.6 °F 78% 29.89 in - NW 13.8 mph - N/A   Unknown
2:00 PM 77.0 °F - 71.6 °F 83% 29.89 in - NNW 16.1 mph - N/A   Unknown
2:30 PM 77.0 °F - 73.4 °F 89% 29.89 in - NNW 12.7 mph - N/A   Unknown
3:00 PM 77 °F - 73 °F 83% 29.89 in - NNW 12.7 mph - -  
3:00 PM 77.0 °F - 73.4 °F 89% 29.89 in - NNW 12.7 mph - N/A   Unknown
3:30 PM 77.0 °F - 73.4 °F 89% 29.89 in - NW 9.2 mph - N/A   Unknown
3:59 PM 73.4 °F - 66.2 °F 78% 29.92 in - SE 18.4 mph - N/A   Unknown
4:04 PM 69.8 °F - 66.2 °F 88% 29.92 in - SSE 21.9 mph 34.5 mph N/A   Unknown
4:10 PM 69.8 °F - 68.0 °F 94% 29.92 in - SSE 34.5 mph - N/A   Unknown
4:30 PM 68.0 °F - 68.0 °F 100% 29.92 in - SSE 31.1 mph - N/A   Unknown
5:00 PM 68.0 °F - 68.0 °F 100% 29.92 in - SSE 32.2 mph - N/A   Unknown
5:30 PM - - - N/A% 29.95 in - SSE 31.1 mph - N/A   Unknown
6:00 PM 67 °F - - % 29.98 in - SSE 24.2 mph - -  
6:00 PM - - - N/A% 29.98 in - SSE 24.2 mph - N/A   Unknown
6:30 PM - - - N/A% 29.98 in - SSE 24.2 mph - N/A   Unknown
7:00 PM 68.0 °F - 68.0 °F 100% 30.01 in - SE 23.0 mph - N/A   Unknown
7:30 PM - - - N/A% 30.01 in - SE 26.5 mph - N/A   Unknown
8:00 PM 66.2 °F - 66.2 °F 100% 30.04 in - SE 24.2 mph - N/A   Unknown
8:30 PM 66.2 °F - 66.2 °F 100% 30.04 in - SE 26.5 mph - N/A   Unknown
9:00 PM 67 °F - 66 °F 96% 30.04 in - SE 24.2 mph - -  
9:00 PM 68.0 °F - 66.2 °F 94% 30.04 in - SE 24.2 mph - N/A   Unknown
9:30 PM 68.0 °F - 64.4 °F 88% 30.04 in - SE 24.2 mph - N/A   Unknown
10:00 PM 66.2 °F - 64.4 °F 94% 30.04 in - SSE 23.0 mph - N/A   Unknown
10:30 PM 66.2 °F - 66.2 °F 100% 30.06 in - SE 21.9 mph - N/A   Unknown
11:00 PM 66.2 °F - 64.4 °F 94% 30.04 in - SSE 19.6 mph - N/A   Unknown
11:30 PM 66.2 °F - 66.2 °F 100% 30.04 in - SSE 19.6 mph - N/A   Unknown